Station CHCM2 - 8573927 - Chesapeake City, MD Image indicating link to RSS feed of recent meteorological observations for station CHCM2


Conditions at CHCM2 as of
(3:48 pm EDT)
1948 GMT on 05/22/2024:
     

Click on the graph icon in the table below to see a time series plot of the last five days of that observation.

5-day plot - Wind Direction Wind Direction (WDIR):WNW ( 300 deg true )
5-day plot - Wind Speed Wind Speed (WSPD): 7.0 kts
5-day plot - Wind Gust Wind Gust (GST): 9.9 kts
5-day plot - Atmospheric Pressure Atmospheric Pressure (PRES):29.91 in
5-day plot - Air Temperature Air Temperature (ATMP): 82.6 °F
5-day plot - Water Temperature Water Temperature (WTMP): 71.2 °F
5-day plot - Wind Speed at 10 Meters Wind Speed at 10 meters (WSPD10M): 7.8 kts
5-day plot - Wind Speed at 20 Meters Wind Speed at 20 meters (WSPD20M): 7.8 kts
5-day plot -  Wind Speed, Wind Gust and Atmospheric Pressure Combined plot of Wind Speed, Gust, and Air Pressure
NOS Water Level Observation Network Water Level
Previous observations
TIME
(EDT)
5-day plot - Wind Direction
WDIR
 
5-day plot - Wind Speed
WSPD
kts
5-day plot - Wind Gust
GST
kts
5-day plot - Wave Height
WVHT
ft
5-day plot - Dominant Wave Period
DPD
sec
5-day plot - Average Wave Period
APD
sec
5-day plot - Mean Wave Direction
MWD
 
5-day plot - Atmospheric Pressure
PRES
in
5-day plot - Pressure Tendency
PTDY
in
5-day plot - Air Temperature
ATMP
°F
5-day plot - Water Temperature
WTMP
°F
5-day plot - Dew Point
DEWP
°F
5-day plot - Salinity
SAL
psu
5-day plot - Visibility
VIS
nmi
5-day plot - Tide (above MLLW)
TIDE
ft
2024-05-22 03:42 pmWNW 7.0 11.1----29.91- 82.9 71.4----
2024-05-22 03:36 pm W 7.0 13.0----29.91- 83.7 71.1----
2024-05-22 03:30 pm W 6.0 8.0----29.91- 83.3 71.2----
2024-05-22 03:24 pmWNW 7.0 9.9----29.91- 82.2 71.1----
2024-05-22 03:18 pmWNW 8.9 9.9----29.91- 81.5 70.9----
2024-05-22 03:12 pmWNW 8.9 11.1----29.92- 81.9 70.9----
2024-05-22 03:06 pmWNW 8.9 11.1----29.92- 81.5 70.9----
2024-05-22 03:00 pmWNW 8.9 12.0----29.92-0.05 81.9 70.9----
2024-05-22 02:54 pmWNW 8.0 12.0----29.92- 80.8 70.5----
2024-05-22 02:48 pmWNW 6.0 11.1----29.92- 81.0 70.5----
2024-05-22 02:42 pm W 6.0 9.9----29.92- 83.1 70.3----
2024-05-22 02:36 pm W 7.0 9.9----29.92- 83.7 70.3----
2024-05-22 02:30 pm W 4.1 8.0----29.92- 83.3 70.5----
2024-05-22 02:24 pm W 7.0 9.9----29.92- 83.3 70.7----
2024-05-22 02:18 pmWNW 7.0 9.9------- 70.7----
2024-05-22 02:12 pm W 5.1 9.9------- 70.5----
2024-05-22 02:06 pmWNW 4.1 8.9------- 70.2----
2024-05-22 02:00 pmWNW 7.0 12.0------- 70.2----
2024-05-22 01:54 pmWSW 8.0 11.1------- 70.2----
2024-05-22 01:48 pmWSW 6.0 11.1------- 70.0----
2024-05-22 01:42 pm W 5.1 12.0------- 70.0----
2024-05-22 01:36 pmSSW 7.0 12.0------- 69.8----
2024-05-22 01:30 pmSSW 6.0 12.0----29.93-------
2024-05-22 01:24 pm SW 6.0 14.0----29.94-------
2024-05-22 01:18 pmWSW 5.1 8.9------- 69.6----
2024-05-22 01:12 pmSSW 4.1 7.0------- 69.6----
2024-05-22 01:06 pmWSW 1.0 8.9------- 69.6----
2024-05-22 01:00 pmWSW 7.0 13.0----29.94-0.06- 69.8----
2024-05-22 12:54 pm SW 7.0 11.1----29.95-- 69.6----
2024-05-22 12:48 pm SW 2.9 7.0------- 69.6----
2024-05-22 12:42 pmWSW 7.0 11.1------- 69.8----
2024-05-22 12:36 pm SW 4.1 9.9------- 69.8----
2024-05-22 12:30 pmWNW 5.1 8.9------------
2024-05-22 12:24 pm SW 6.0 9.9------------
2024-05-22 12:18 pmWSW 4.1 7.0------ 81.7 69.6----
2024-05-22 12:12 pm SW 5.1 9.9------ 80.8 69.6----
2024-05-22 12:06 pmWSW 6.0 8.0------ 80.6 69.8----
2024-05-22 12:00 pmWSW 6.0 8.9----29.97-0.04 80.2 69.6----
2024-05-22 11:54 am SW 4.1 7.0----29.97- 80.6 69.6----
2024-05-22 11:48 amWSW 5.1 8.9----29.97- 79.7 69.6----
2024-05-22 11:42 amWSW 8.0 9.9----29.98- 79.5 69.6----
2024-05-22 11:36 am S 6.0 8.9----29.97- 79.3 69.6----
2024-05-22 11:30 am SW 6.0 9.9----29.97- 78.6 69.4----
2024-05-22 11:24 amSSE 6.0 8.9----29.98- 78.4 69.4----
2024-05-22 11:18 am S 5.1 7.0----29.98- 78.1 69.6----
2024-05-22 11:12 amSSW 5.1 8.0----29.98- 77.5 69.6----
2024-05-22 11:06 am SW 5.1 8.0----29.98- 77.0 69.6----
2024-05-22 11:00 am SW 5.1 8.0----29.98-0.03 77.0 69.6----
2024-05-22 10:54 amSSW 4.1 8.9----29.99- 76.3 69.4----
2024-05-22 10:48 am SW 4.1 8.0----29.99-- 69.4----
2024-05-22 10:42 amSSW 6.0 8.9----29.99-- 69.4----
2024-05-22 10:36 am S 1.0 7.0----29.99-- 69.4----
2024-05-22 10:30 amSSW 5.1 8.0------------
2024-05-22 10:24 amSSW 5.1 9.9------------
2024-05-22 10:18 amSSW 2.9 5.1------------
2024-05-22 10:12 amSSE 2.9 7.0------------
2024-05-22 10:06 am SW 2.9 7.0------------
2024-05-22 10:00 amSSW 4.1 5.1----30.00+0.00 72.9 69.4----
2024-05-22 09:54 am S 1.9 7.0----30.00- 72.9 69.4----
2024-05-22 09:48 am S 4.1 7.0----30.00-- 69.4----
2024-05-22 09:42 am S 4.1 6.0----30.00-- 69.4----
2024-05-22 09:36 am S 2.9 7.0----30.00-- 69.4----
2024-05-22 09:30 am SW 4.1 7.0------------
2024-05-22 09:24 am SW 2.9 7.0------------
2024-05-22 09:18 amSSW 4.1 7.0----30.01-- 69.4----
2024-05-22 09:12 amSSW 4.1 6.0----30.01-- 69.4----
2024-05-22 09:06 amSSW 4.1 6.0----30.01-- 69.4----
2024-05-22 09:00 amWSW 5.1 7.0----30.01+0.02 69.4 69.4----
2024-05-22 08:54 am S 4.1 5.1----30.01- 69.6 69.4----
2024-05-22 08:48 am SW 5.1 6.0----30.01- 69.1 69.4----
2024-05-22 08:42 amSSW 2.9 5.1----30.01- 69.3 69.4----
2024-05-22 08:36 am SW 2.9 4.1----30.01- 68.4 69.4----
2024-05-22 08:30 amSSW 1.9 2.9----30.02- 68.0 69.4----
2024-05-22 08:24 am S 1.9 5.1----30.01- 67.6 69.4----
2024-05-22 08:18 amSSE 1.9 4.1----30.02- 67.8 69.4----
2024-05-22 08:12 am S 1.9 4.1----30.01- 67.1 69.4----
2024-05-22 08:06 am S 1.0 2.9----30.01- 66.7 69.3----
2024-05-22 08:00 am S 1.9 2.9----30.01+0.02 66.2 69.3----
2024-05-22 07:54 am S 1.9 2.9----30.01- 65.8 69.3----
2024-05-22 07:48 am S 1.9 2.9----30.01- 65.7 69.3----
2024-05-22 07:42 amSSE 1.9 2.9----30.01- 64.9 69.1----
2024-05-22 07:36 amSSW 1.0 1.9----30.01- 64.9 68.9----
2024-05-22 07:30 am- 0.0 2.9----30.01- 65.3 68.9----
2024-05-22 07:24 am- 0.0 2.9----30.01- 64.8 68.9----
2024-05-22 07:18 am SE 1.0 2.9----30.01- 64.0 68.7----
2024-05-22 07:12 am SE 1.9 1.9----30.01- 63.3 68.7----
2024-05-22 07:06 am SE 1.0 1.9----30.01- 62.8 68.7----
2024-05-22 07:00 am SE 1.9 2.9----30.01+0.02 62.6 68.7----
2024-05-22 06:54 amESE 1.9 1.9----30.00- 62.6 68.7----
2024-05-22 06:48 am E 1.0 1.9----30.00- 62.4 68.5----
2024-05-22 06:42 am SE 1.0 1.9----30.00- 61.7 68.5----
2024-05-22 06:36 am SE 1.0 1.9----30.00- 61.5 68.4----
2024-05-22 06:30 am- 0.0 1.9----30.00- 61.3 68.4----
2024-05-22 06:24 am- 0.0 1.0----30.00- 61.3 68.4----
2024-05-22 06:18 am- 0.0 1.0----30.00- 60.8 68.4----
2024-05-22 06:12 am- 0.0 1.0----30.00- 60.4 68.4----
2024-05-22 06:06 amSSE 1.0 1.0----30.00- 59.9 68.4----
2024-05-22 06:00 am SE 1.0 1.9----29.99+0.00 60.1 68.4----
2024-05-22 05:54 am- 0.0 1.9----30.00- 60.1 68.4----
2024-05-22 05:48 am SE 1.0 1.0----30.00- 60.1 68.4----
2024-05-22 05:42 am SE 1.0 1.0----30.00- 60.1 68.2----
2024-05-22 05:36 am SE 1.0 1.9----30.00- 59.9 68.2----
2024-05-22 05:30 am- 0.0 1.0----30.00- 59.7 68.4----
2024-05-22 05:24 am- 0.0 1.9----30.00- 59.9 68.2----
2024-05-22 05:18 am SE 1.9 1.9----29.99- 60.1 68.4----
2024-05-22 05:12 am- 0.0 1.0----29.99- 60.6 68.4----
2024-05-22 05:06 am- 0.0 1.0----30.00- 60.8 68.2----
2024-05-22 05:00 am- 0.0 1.0----30.00+0.00 60.8 68.2----
2024-05-22 04:54 am NE 1.0 1.0----30.00- 61.2 68.2----
2024-05-22 04:48 am- 0.0 1.0----30.00- 61.0 68.2----
2024-05-22 04:42 am- 0.0 0.0----29.99- 60.8 68.4----
2024-05-22 04:36 am- 0.0 0.0----29.99- 60.4 68.4----
2024-05-22 04:30 am- 0.0 0.0----29.99- 60.6 68.4----
2024-05-22 04:24 am- 0.0 1.0----29.99- 60.6 68.5----
2024-05-22 04:18 am- 0.0 1.9----30.00- 60.8 68.5----
2024-05-22 04:12 amSSW 1.9 2.9----29.99- 61.0 68.7----
2024-05-22 04:06 am SW 1.0 1.9----29.99- 60.6 68.7----
2024-05-22 04:00 am SW 1.0 1.0----29.99+0.01 60.3 68.7----
2024-05-22 03:54 am- 0.0 1.0----29.99- 60.4 68.9----
2024-05-22 03:48 am- 0.0 1.0----29.98- 60.3 68.9----
2024-05-22 03:42 amSSE 1.0 1.0----29.98- 60.8 69.1----
2024-05-22 03:36 am- 0.0 1.0----29.98- 61.2 69.1----
2024-05-22 03:30 amESE 1.0 1.0----29.98- 61.0 69.3----
2024-05-22 03:24 am- 0.0 1.0----29.98- 60.6 69.4----
2024-05-22 03:18 am- 0.0 1.0----29.98- 60.4 69.4----
2024-05-22 03:12 am- 0.0 1.0----29.99- 60.3 69.4----
2024-05-22 03:06 am- 0.0 1.9----29.99- 60.8 69.4----
2024-05-22 03:00 am- 0.0 1.0----29.99+0.00 60.8 69.4----
2024-05-22 02:54 am- 0.0 1.0----29.99- 60.6 69.4----
2024-05-22 02:48 am- 0.0 1.0----29.99- 60.6 69.4----
2024-05-22 02:42 am- 0.0 1.0----29.99- 60.6 69.4----
2024-05-22 02:36 am S 1.0 1.9----29.99- 61.0 69.4----
2024-05-22 02:30 am- 0.0 1.0----29.99- 61.3 69.4----
2024-05-22 02:24 am S 1.0 1.9----29.99- 61.5 69.6----
2024-05-22 02:18 amSSW 1.0 1.9----29.99- 62.1 69.6----
2024-05-22 02:12 am SW 1.0 1.9----29.99- 61.5 69.6----
2024-05-22 02:06 am SW 1.9 1.9----29.99- 61.5 69.6----
2024-05-22 02:00 am SW 1.9 1.9----29.99+0.00 61.9 69.6----
2024-05-22 01:54 amSSW 1.0 1.9----29.99- 61.9 69.6----
2024-05-22 01:48 am- 0.0 1.0----29.99- 62.4 69.6----
2024-05-22 01:42 am- 0.0 1.0----29.99- 62.1 69.6----
2024-05-22 01:36 am- 0.0 1.0----29.98- 62.2 69.6----
2024-05-22 01:30 am- 0.0 1.0----29.98- 63.0 69.6----
2024-05-22 01:24 am- 0.0 1.0----29.98- 63.1 69.6----
2024-05-22 01:18 am N 1.0 1.9----29.98- 63.3 69.6----
2024-05-22 01:12 am W 1.0 1.0----29.98- 62.8 69.6----
2024-05-22 01:06 am W 1.0 1.9----29.98- 62.4 69.6----
2024-05-22 01:00 amWSW 1.0 1.9----29.98+0.00 62.6 69.6----
2024-05-22 12:54 amWSW 1.9 1.9----29.98- 63.0 69.6----
2024-05-22 12:48 amSSW 1.0 1.0----29.98- 62.4 69.6----
2024-05-22 12:42 am- 0.0 1.0----29.98- 62.4 69.6----
2024-05-22 12:36 am- 0.0 1.0----29.98- 62.8 69.6----
2024-05-22 12:30 am- 0.0 1.0----29.98- 62.8 69.6----
2024-05-22 12:24 am- 0.0 1.0----29.98- 63.0 69.6----
2024-05-22 12:18 am- 0.0 1.0----29.98- 63.1 69.6----
2024-05-22 12:12 am- 0.0 0.0----29.99- 63.1 69.6----
2024-05-22 12:06 am- 0.0 1.0----29.99- 63.1 69.6----
2024-05-22 12:00 am- 0.0 1.0----29.99+0.02 63.3 69.6----
2024-05-21 11:54 pm- 0.0 1.0----29.99- 63.1 69.6----
2024-05-21 11:48 pm SW 1.0 1.0----29.99- 63.3 69.6----
2024-05-21 11:42 pm- 0.0 1.0----29.99- 63.3 69.6----
2024-05-21 11:36 pm- 0.0 1.9----29.99- 63.5 69.6----
2024-05-21 11:30 pm S 1.0 1.0----30.00- 63.9 69.6----
2024-05-21 11:24 pmSSW 1.0 1.0----29.99- 64.0 69.6----
2024-05-21 11:18 pm- 0.0 1.0----30.00- 64.0 69.6----
2024-05-21 11:12 pm- 0.0 1.0----29.99- 64.2 69.6----
2024-05-21 11:06 pm S 1.0 1.0----29.99- 64.6 69.6----
2024-05-21 11:00 pm- 0.0 1.0----29.99+0.03 64.8 69.6----
2024-05-21 10:54 pm SW 1.0 1.0----29.99- 65.1 69.6----
2024-05-21 10:48 pm- 0.0 1.0----29.99- 65.3 69.6----
2024-05-21 10:42 pm- 0.0 0.0----29.99- 65.5 69.6----
2024-05-21 10:36 pm- 0.0 1.0----29.99- 65.5 69.6----
2024-05-21 10:30 pm- 0.0 1.0----29.99- 65.7 69.6----
2024-05-21 10:24 pm SE 1.0 1.9----29.99- 65.7 69.6----
2024-05-21 10:18 pmSSE 1.0 1.0----29.99- 66.0 69.6----
2024-05-21 10:12 pm- 0.0 1.0----29.98- 66.4 69.6----
2024-05-21 10:06 pmESE 1.0 1.9----29.98- 66.9 69.6----
2024-05-21 10:00 pm- 0.0 1.0----29.98+0.01 66.9 69.6----
2024-05-21 09:54 pm- 0.0 1.0----29.98- 67.1 69.6----
2024-05-21 09:48 pm- 0.0 1.0----29.98- 67.3 69.6----
2024-05-21 09:42 pm- 0.0 1.0----29.98- 67.5 69.4----
2024-05-21 09:36 pm- 0.0 1.0----29.98- 67.6 69.4----
2024-05-21 09:30 pm- 0.0 1.0----29.97- 68.2 69.4----
2024-05-21 09:24 pm- 0.0 1.0----29.97- 68.2 69.4----
2024-05-21 09:18 pm- 0.0 1.0----29.97- 68.9 69.4----
2024-05-21 09:12 pmSSE 1.0 1.9----29.97- 69.8 69.4----
2024-05-21 09:06 pm- 0.0 1.9----29.97- 70.2 69.4----
2024-05-21 09:00 pmESE 1.9 4.1----29.97+0.00 70.2 69.4----
2024-05-21 08:54 pm SE 1.0 2.9----29.97- 70.5 69.4----
2024-05-21 08:48 pmSSE 1.9 2.9----29.97- 70.7 69.4----
2024-05-21 08:42 pmESE 1.9 4.1----29.97- 70.9 69.4----
2024-05-21 08:36 pmESE 2.9 4.1----29.97- 71.8 69.6----
2024-05-21 08:30 pm SE 1.9 2.9----29.97- 71.6 69.6----
2024-05-21 08:24 pmESE 1.0 1.9----29.97- 72.3 69.6----
2024-05-21 08:18 pm SE 1.0 1.9----29.97- 72.7 69.8----
2024-05-21 08:12 pm SE 1.9 1.9----29.97- 73.2 69.6----
2024-05-21 08:06 pm SE 1.0 2.9----29.97- 73.9 69.6----
2024-05-21 08:00 pm SE 1.9 2.9----29.97+0.02 74.1 69.8----
2024-05-21 07:54 pmESE 1.9 2.9----29.96- 74.8 69.8----
2024-05-21 07:48 pm SE 1.9 2.9----29.97- 75.6 70.0----
2024-05-21 07:42 pmSSE 1.0 1.9----29.97- 77.4 70.0----
2024-05-21 07:36 pmWSW 1.9 2.9----29.97- 77.9 70.0----
2024-05-21 07:30 pm SW 1.9 4.1----29.97- 78.4 70.0----
2024-05-21 07:24 pmWSW 1.9 2.9----29.97- 78.8 70.0----
2024-05-21 07:00 pm SW 1.9 4.1----29.97+0.00 80.2 70.2----
2024-05-21 06:54 pm SW 2.9 8.0----29.97- 80.4 70.0----
2024-05-21 06:48 pm SW 5.1 8.9----29.97- 80.2 70.2----
2024-05-21 06:42 pm SW 2.9 6.0----29.97- 80.8 70.0----
2024-05-21 06:36 pm SW 2.9 5.1----29.97- 80.8 70.0----
2024-05-21 06:30 pmWSW 5.1 6.0----29.97- 80.6 69.8----
2024-05-21 06:24 pmWSW 6.0 8.9----29.97- 80.4 69.6----
2024-05-21 06:18 pmWSW 5.1 8.0----29.97- 80.4 69.4----
2024-05-21 06:12 pm W 5.1 8.0----29.97- 80.2 69.4----
2024-05-21 06:06 pmWNW 5.1 6.0----29.97- 80.4 69.3----
2024-05-21 06:00 pmWNW 5.1 8.0----29.97-0.01 80.4 69.3----
2024-05-21 05:54 pm W 5.1 6.0----29.97- 80.4 69.1----
2024-05-21 05:48 pmWNW 7.0 8.9----29.98- 80.4 69.1----
2024-05-21 05:42 pmWNW 5.1 8.0----29.97- 80.1 69.1----
2024-05-21 05:36 pmWNW 6.0 8.9----29.97- 80.2 68.9----
2024-05-21 05:30 pmWNW 8.0 9.9----29.97-- 68.9----
2024-05-21 05:24 pmWNW 7.0 9.9----29.97-- 68.9----
2024-05-21 05:18 pmWNW 7.0 8.9----29.96-- 68.9----
2024-05-21 05:12 pmWNW 7.0 9.9----29.96-- 68.7----
2024-05-21 05:06 pmWNW 8.9 9.9----29.96-- 68.9----
2024-05-21 05:00 pmWNW 7.0 8.9----29.95-0.04 79.9 68.9----
2024-05-21 04:54 pmWNW 6.0 8.0----29.95- 80.2 68.9----
2024-05-21 04:48 pm NW 8.0 9.9----29.95-- 69.3----
2024-05-21 04:42 pmWNW 7.0 11.1----29.96-- 69.1----
2024-05-21 04:36 pmWNW 7.0 8.9----29.96-- 69.4----
2024-05-21 04:30 pmWNW 8.9 11.1----29.96-------
2024-05-21 04:24 pmWNW 7.0 11.1----29.96-------
2024-05-21 04:18 pm W 6.0 9.9----29.96-- 68.9----
2024-05-21 04:12 pm W 5.1 8.9----29.97-- 69.1----
2024-05-21 04:06 pmWNW 8.9 12.0----29.97-- 69.3----
2024-05-21 04:00 pm W 6.0 8.0----29.97-0.02 79.7 69.4----
2024-05-21 03:54 pmWNW 8.0 11.1----29.98- 78.8 70.0----